User: anonymous   Login
Location: Scultetus-Sternwarte G�rlitz
(51.1356°N, 14.9514°E)
Time: 19:32:38
(UTC+02:00)
Language:

Iridium 3 - Orbit

View from above orbital plane
View from above orbital plane
View from above satellite
View from above satellite

Ground track
Ground track

The orbit data is extracted from the following two-line orbital elements,

1 25431U 98048A   16182.55516550  .00000102  00000-0  29279-4 0  9990
2 25431  86.3956  42.7142 0002361  85.9010 290.2659 14.34217936935212
Epoch (UTC): 30 June 2016 13:19:26
Eccentricity: 0.0002361
inclination: 86.3956°
perigee height: 776 km
apogee height: 779 km
right ascension of ascending node: 42.7142°
argument of perigee: 85.9010°
revolutions per day: 14.34217936
mean anomaly at epoch: 290.2659°
orbit number at epoch: 93521

The dashed part of the orbit path shows where the satellite is in the earth's shadow,  

DLR